Weather History for Red Oak, IA

Change the Weather History Date:

Sunday, November 18, 2012

  Actual Average Record
Temperature  
Mean Temperature 56 °F -  
Max Temperature 64 °F 49 °F 75 °F (1999)
Min Temperature 48 °F 30 °F 10 °F (1980)
Degree Days  
Heating Degree Days 9    
Growing Degree Days 6 (Base 50)    
Moisture  
Dew Point 30 °F    
Average Humidity 39    
Maximum Humidity 67    
Minimum Humidity 24    
Precipitation  
Precipitation 0.02 in - - ()
Sea Level Pressure  
Sea Level Pressure 30.14 in    
Wind  
Wind Speed 13 mph (SSE)    
Max Wind Speed 20 mph    
Max Gust Speed 26 mph    
Visibility 10 miles    
Events Rain    
Averages and records for this station are not official NWS values.
T = Trace of Precipitation, MM = Missing Value Source: NWS Daily Summary

Daily Weather History Graph

Daily Weather History Graph

Search for Another Location

Airport:

Trip Planner

Search our weather history database for the weather conditions in past years. The results will help you decide how hot, cold, wet, or windy it might be!

Date:

Astronomy

Nov. 18, 2012 Rise Set
Actual Time 7:12 AM CST 4:59 PM CST
Civil Twilight 6:42 AM CST 5:29 PM CST
Nautical Twilight 6:09 AM CST 6:02 PM CST
Astronomical Twilight 5:36 AM CST 6:35 PM CST
Moon 11:39 AM CST (11/18) 10:21 PM CST (11/18)
Length of Visible Light 10h 46m
Length of Day
9h 46m
Waxing Crescent, 30% of the Moon is Illuminated
Nov 18
Waxing Crescent
Nov 20
First Quarter
Nov 28
Full
Dec 6
Last Quarter
Dec 13
New

Hourly Weather History & Observations

Time (CST) Temp. Dew Point Humidity Pressure Visibility Wind Dir Wind Speed Gust Speed Precip Events Conditions
12:15 AM 48.2 °F 30.2 °F 50% 30.22 in 10.0 mi SSE 8.1 mph - N/A   Overcast
12:35 AM 50.0 °F 30.2 °F 47% 30.21 in 10.0 mi SSE 11.5 mph - N/A   Overcast
12:55 AM 50.0 °F 30.2 °F 47% 30.21 in 10.0 mi SSE 11.5 mph - N/A   Overcast
1:15 AM 51.8 °F 28.4 °F 41% 30.21 in 10.0 mi SSE 11.5 mph - N/A   Overcast
1:55 AM 51.8 °F 28.4 °F 41% 30.20 in 10.0 mi South 12.7 mph - N/A   Overcast
2:15 AM 51.8 °F 28.4 °F 41% 30.19 in 10.0 mi South 11.5 mph - N/A   Overcast
2:35 AM 51.8 °F 28.4 °F 41% 30.19 in 10.0 mi South 10.4 mph 18.4 mph N/A   Overcast
2:55 AM 51.8 °F 28.4 °F 41% 30.19 in 10.0 mi South 12.7 mph - N/A   Overcast
3:15 AM 51.8 °F 28.4 °F 41% 30.19 in 10.0 mi South 13.8 mph - N/A   Overcast
3:35 AM 51.8 °F 26.6 °F 38% 30.19 in 10.0 mi South 15.0 mph - N/A   Overcast
3:55 AM 51.8 °F 28.4 °F 41% 30.19 in 10.0 mi South 15.0 mph 19.6 mph N/A   Overcast
4:15 AM 51.8 °F 28.4 °F 41% 30.19 in 10.0 mi South 15.0 mph - N/A   Overcast
4:35 AM 51.8 °F 28.4 °F 41% 30.18 in 10.0 mi South 12.7 mph - N/A   Overcast
4:55 AM 51.8 °F 28.4 °F 41% 30.18 in 10.0 mi South 13.8 mph 19.6 mph N/A   Overcast
5:15 AM 51.8 °F 28.4 °F 41% 30.18 in 10.0 mi South 12.7 mph - N/A   Overcast
5:35 AM 50.0 °F 28.4 °F 43% 30.18 in 10.0 mi South 11.5 mph 18.4 mph N/A   Overcast
5:55 AM 50.0 °F 28.4 °F 43% 30.18 in 10.0 mi South 9.2 mph - N/A   Overcast
6:15 AM 50.0 °F 28.4 °F 43% 30.17 in 10.0 mi SSE 8.1 mph - N/A   Overcast
6:35 AM 48.2 °F 30.2 °F 50% 30.18 in 10.0 mi SSE 8.1 mph - N/A   Overcast
6:55 AM 48.2 °F 30.2 °F 50% 30.18 in 10.0 mi South 11.5 mph - N/A   Mostly Cloudy
7:15 AM 48.2 °F 28.4 °F 46% 30.17 in 10.0 mi South 12.7 mph 17.3 mph N/A   Scattered Clouds
7:35 AM 48.2 °F 28.4 °F 46% 30.18 in 10.0 mi South 12.7 mph - N/A   Clear
7:55 AM 48.2 °F 30.2 °F 50% 30.18 in 10.0 mi South 11.5 mph - N/A   Clear
8:15 AM 48.2 °F 28.4 °F 46% 30.18 in 10.0 mi South 12.7 mph 17.3 mph N/A   Clear
8:35 AM 50.0 °F 28.4 °F 43% 30.18 in 10.0 mi South 16.1 mph - N/A   Clear
8:55 AM 51.8 °F 28.4 °F 41% 30.18 in 10.0 mi South 16.1 mph - N/A   Clear
9:15 AM 51.8 °F 28.4 °F 41% 30.18 in 10.0 mi South 15.0 mph 23.0 mph N/A   Clear
9:35 AM 53.6 °F 28.4 °F 38% 30.18 in 10.0 mi South 15.0 mph - N/A   Clear
9:55 AM 55.4 °F 28.4 °F 36% 30.17 in 10.0 mi South 17.3 mph 23.0 mph N/A   Clear
10:15 AM 55.4 °F 28.4 °F 36% 30.17 in 10.0 mi South 18.4 mph 23.0 mph N/A   Scattered Clouds
10:35 AM 59.0 °F 28.4 °F 31% 30.17 in 10.0 mi South 17.3 mph - N/A   Clear
10:55 AM 59.0 °F 26.6 °F 29% 30.17 in 10.0 mi South 16.1 mph 24.2 mph N/A   Clear
11:15 AM 60.8 °F 26.6 °F 27% 30.16 in 10.0 mi South 17.3 mph 20.7 mph N/A   Clear
11:35 AM 60.8 °F 26.6 °F 27% 30.15 in 10.0 mi South 17.3 mph - N/A   Clear
11:55 AM 62.6 °F 26.6 °F 26% 30.14 in 10.0 mi South 18.4 mph 24.2 mph N/A   Clear
12:15 PM 62.6 °F 26.6 °F 26% 30.13 in 10.0 mi South 16.1 mph - N/A   Scattered Clouds
12:35 PM 62.6 °F 26.6 °F 26% 30.12 in 10.0 mi South 16.1 mph 21.9 mph N/A   Clear
12:55 PM 62.6 °F 26.6 °F 26% 30.12 in 10.0 mi South 16.1 mph - N/A   Clear
1:15 PM 62.6 °F 26.6 °F 26% 30.11 in 10.0 mi South 16.1 mph - N/A   Clear
1:35 PM 64.4 °F 26.6 °F 24% 30.11 in 10.0 mi South 16.1 mph 19.6 mph N/A   Clear
1:55 PM 62.6 °F 26.6 °F 26% 30.10 in 10.0 mi South 16.1 mph - N/A   Clear
2:15 PM 62.6 °F 28.4 °F 27% 30.09 in 10.0 mi South 13.8 mph - N/A   Clear
2:35 PM 62.6 °F 28.4 °F 27% 30.09 in 10.0 mi SSE 13.8 mph 19.6 mph N/A   Clear
2:55 PM 62.6 °F 30.2 °F 30% 30.08 in 10.0 mi SSE 12.7 mph - N/A   Clear
3:15 PM 64.4 °F 28.4 °F 26% 30.08 in 10.0 mi SSE 17.3 mph 20.7 mph N/A   Clear
3:35 PM 62.6 °F 28.4 °F 27% 30.09 in 10.0 mi SSE 13.8 mph 19.6 mph N/A   Scattered Clouds
3:55 PM 62.6 °F 28.4 °F 27% 30.09 in 10.0 mi SSE 11.5 mph 20.7 mph N/A   Mostly Cloudy
4:15 PM 62.6 °F 28.4 °F 27% 30.09 in 10.0 mi SSE 15.0 mph 18.4 mph N/A   Scattered Clouds
4:35 PM 60.8 °F 28.4 °F 29% 30.09 in 10.0 mi SSE 10.4 mph - N/A   Scattered Clouds
4:55 PM 60.8 °F 30.2 °F 31% 30.10 in 10.0 mi SSE 11.5 mph - N/A   Clear
5:15 PM 60.8 °F 30.2 °F 31% 30.10 in 10.0 mi SSE 10.4 mph - N/A   Mostly Cloudy
5:35 PM 60.8 °F 30.2 °F 31% 30.10 in 10.0 mi SSE 10.4 mph - N/A   Mostly Cloudy
5:55 PM 59.0 °F 30.2 °F 34% 30.10 in 10.0 mi SSE 10.4 mph - N/A   Scattered Clouds
6:15 PM 57.2 °F 32.0 °F 38% 30.11 in 10.0 mi SSE 9.2 mph - N/A   Scattered Clouds
6:35 PM 59.0 °F 32.0 °F 36% 30.10 in 10.0 mi SSE 15.0 mph - N/A   Scattered Clouds
6:55 PM 59.0 °F 32.0 °F 36% 30.10 in 10.0 mi SSE 15.0 mph 18.4 mph N/A   Scattered Clouds
7:15 PM 59.0 °F 32.0 °F 36% 30.10 in 10.0 mi SSE 17.3 mph 23.0 mph N/A   Scattered Clouds
7:35 PM 59.0 °F 33.8 °F 39% 30.09 in 10.0 mi SSE 17.3 mph 23.0 mph N/A   Scattered Clouds
7:55 PM 59.0 °F 33.8 °F 39% 30.08 in 10.0 mi SSE 19.6 mph 24.2 mph N/A   Scattered Clouds
8:15 PM 57.2 °F 33.8 °F 41% 30.08 in 10.0 mi South 18.4 mph 23.0 mph N/A   Scattered Clouds
8:35 PM 57.2 °F 35.6 °F 44% 30.09 in 10.0 mi South 17.3 mph 24.2 mph N/A Rain Light Rain
8:55 PM 57.2 °F 33.8 °F 41% 30.09 in 10.0 mi South 17.3 mph 26.5 mph N/A   Light Drizzle
9:15 PM 57.2 °F 37.4 °F 48% 30.11 in 10.0 mi South 18.4 mph 26.5 mph N/A Rain Rain
9:35 PM 53.6 °F 42.8 °F 67% 30.10 in 10.0 mi SSE 13.8 mph 19.6 mph 0.01 in Rain Light Rain
9:55 PM 53.6 °F 42.8 °F 67% 30.11 in 10.0 mi SSE 11.5 mph - 0.02 in Rain Light Rain
10:35 PM 55.4 °F 39.2 °F 54% 30.10 in 10.0 mi SSE 9.2 mph - N/A   Mostly Cloudy
11:15 PM 53.6 °F 39.2 °F 58% 30.09 in 10.0 mi SSE 8.1 mph - N/A   Scattered Clouds
11:55 PM 53.6 °F 39.2 °F 58% 30.09 in 10.0 mi South 5.8 mph - N/A   Scattered Clouds